Location: Tom
(33.0437°N, 96.9452°W)
Time: 16:47:32
(UTC-06:00)

Envisat - Pass Details

Date: 25 January 2019
Orbit: 764 x 766 km, 98.2° (Epoch: 19 February)

Event Time Altitude Azimuth Distance (km) Brightness Sun altitude
Rises 20:33:28 0° 211° (SSW) 3,218 6.6 -33.5°
Reaches altitude 10° 20:36:53 10° 235° (SW) 2,297 6.1 -34.2°
Maximum altitude 20:39:32 14° 267° (W) 2,018 5.9 -34.8°
Drops below altitude 10° 20:42:12 10° 299° (WNW) 2,304 6.1 -35.3°
Sets 20:45:39 0° 324° (NW) 3,235 6.7 -36.1°
